Location: *
(17.3280°S, 114.7300°W)
Time: 07:29:41
(UTC+00:00)

METEOR-M - Pass Details

Date: 05 August 2020
Orbit: 817 x 818 km, 98.4° (Epoch: 20 September)

Event Time Altitude Azimuth Distance (km) Brightness Sun altitude
Rises 12:22:44 0° 359° (N) 3,327 7.4 -24.0°
Reaches altitude 10° 12:25:09 10° 353° (N) 2,401 6.6 -23.4°
Enters shadow 12:30:00 45° 288° (WNW) 1,104 4.4 -22.3°
